Terminal Aerodrome Forecast
Issued by NWS Blacksburg, VA

Current Version | Previous Version | Graphics & Text | Print | Product List | Glossary On
Versions: 1 2 3 4 5 6 7 8 9 10 11 12 13 14 15 16 17 18 19 20 21 22 23 24 25 26 27 28 29 30 31 32 33 34 35 36
000
FTUS41 KRNK 020708 AAA
TAFBLF
TAF AMD
KBLF 020708Z 0207/0306 25003KT P6SM BKN050
     FM021300 25008KT P6SM BKN035
     FM021900 25010G20KT 5SM SHRA VCTS BKN040CB
     FM022300 VRB03KT P6SM -SHRA BKN045=

USA.gov is the U.S. government's official web portal to all federal, state and local government web resources and services.